Other Surface Observations
Issued by NWS Tucson, AZ

Home | Current Version | Previous Version | Text Only | Print | Product List | Glossary On
Versions: 1 2 3 4 5 6 7 8 9 10 11 12 13 14 15 16 17 18 19 20 21 22 23 24 25 26 27 28 29 30 31 32 33 34 35 36 37 38 39 40 41 42 43 44 45 46 47 48 49 50
000
SXUS55 KTWC 211415
OSOTWC

WEATHER ROUNDUP FOR SOUTHEAST ARIZONA
NATIONAL WEATHER SERVICE TUCSON AZ
715 AM MST TUE NOV 21 2017

AZZ504>506-514-211515-
LOCATION       SKY/WX    TMP DP  RH WIND       PRES   REMARKS
TUCSON         MOCLDY    49  24  37 SE6       30.14R
DAVIS-MONTHAN  MOCLDY    46  23  39 SE5       30.12R
CHILDRENS PARK N/A      N/A N/A  49 E3                PIMA CO DEQ
ALVERNON/22ND  N/A       49 N/A N/A E3                PIMA CO DEQ
CHERRY/GLENN   N/A       47 N/A N/A E3                PIMA CO DEQ
TANGERINE      N/A       48 N/A N/A NE4               PIMA CO DEQ
CONTL RANCH    N/A       46  27  47 S4                PIMA CO DEQ
GRANT/1ST      N/A       48  28  46 E3                PIMA CO DEQ
CRAYCROFT/22ND N/A       49  26  41 E4                PIMA CO DEQ
GOLFLINKS/KOLB N/A       49  25  38 E4                PIMA CO DEQ
AJO/12TH       N/A       44  27  51 SW1               PIMA CO DEQ
FAIRGROUNDS    N/A       47 N/A N/A SE9               PIMA CO DEQ
SAGUARO        N/A       48  17  29 N2                *SABINO CYN
SAN CARLOS     N/A       43  17  35 N3                *SAN CARLOS
GREEN VALLEY   N/A       45  25  46 S6                PIMA CO DEQ
HORSE CAMP CYN N/A       55  21  26 N3                *ARAVAIPA CYN
RINCON MTNS    N/A       50 -22   4 NW7G15            *NR MANNING CAMP
$$

AZZ509>511-211515-
LOCATION       SKY/WX    TMP DP  RH WIND       PRES   REMARKS
SAFFORD        PTCLDY    37  14  38 SE3       30.13R
STRAY HORSE    N/A       51  14  22 NE4G15            *
TRAIL CABIN    N/A       45   5  19 SE4               *N OF GRANVILLE
BLACK HILLS    NOT AVBL
DRY LAKE       N/A       44   2  17 N8G15             *NATANES MTNS
NOON CREEK     N/A       52   7  16 SW7G11            *PINALENO MTNS
COLUMBINE      N/A       40   3  21 NE3               *PINALENO MTNS
GUTHRIE        N/A       50   9  19 NW17G23           *SW OF GUTHRIE
$$

AZZ502-503-513-211515-
LOCATION       SKY/WX    TMP DP  RH WIND       PRES   REMARKS
NOGALES        MOCLDY    42  23  46 CALM      30.15R
SELLS          N/A       46  21  36 E3                *
SASABE         N/A       37  21  52 SW3               *ALTAR VLY
HOPKINS        N/A       55 -31   2 N10G18            *SANTA RITA MTNS
CARR CYN       N/A       47  11  23 SW2               *W OF HEREFORD
$$

AZZ507-508-512-211515-
LOCATION       SKY/WX    TMP DP  RH WIND       PRES   REMARKS
SIERRA VISTA   MOCLDY    51  17  26 CALM      30.20R
DOUGLAS        MOCLDY    37  17  44 NE3       30.17R
EMPIRE MTNS    NOT AVBL
MULESHOE RANCH N/A       44  15  30 CALM              *PRESERVE
HEADQUARTERS   N/A       43  14  31 E3                *CHIRICAHUA MTNS
$$

.............................NOTES.............................
THIS IS AN AUTOMATED COLLECTIVE WITH MINIMAL QUALITY CONTROL.
PIMA CO DEQ SITES HAVE NONSTANDARD WIND SENSOR HEIGHTS.
PIMA CO DEQ SITES DO NOT REPORT WIND GUSTS.
* INDICATES WIND SENSORS LOCATED AT 20 FEET INSTEAD OF 33 FEET.
..............................KEY..............................
SKY/WX - SKY CONDITION/WEATHER
TMP    - TEMPERATURE IN FAHRENHEIT
DP     - DEWPOINT IN FAHRENHEIT
RH     - RELATIVE HUMIDITY IN PERCENT
WIND   - DIRECTION AND SPEED IN MILES PER HOUR (MPH)
VRB    - VARIABLE WIND DIRECTION
PRES   - MEAN SEA LEVEL PRESSURE IN INCHES OF MERCURY
         F - FALLING PRESSURE   R - RISING PRESSURE
         S - STEADY PRESSURE
VSB    - VISIBILITY IN MILES
HX     - HEAT INDEX IN FAHRENHEIT
WCI    - WIND CHILL INDEX IN FAHRENHEIT
N/A    - NOT AVAILABLE
AFB    - AIR FORCE BASE
         DAVIS-MONTHAN IS DAVIS-MONTHAN AIR FORCE BASE
CYN    - CANYON
MTNS   - MOUNTAINS
NCA    - NATIONAL CONSERVATION AREA
NR     - NEAR
VLY    - VALLEY
CONTL  - CONTINENTAL
PIMA CO DEQ - PIMA COUNTY DEPT OF ENVIRONMENTAL QUALITY



USA.gov is the U.S. government's official web portal to all federal, state and local government web resources and services.